Location: Unspecified
(36.5600°N, 136.6600°E)
Time: 04:31:32
(UTC+09:00)

BlueWalker 3 - Pass Details

Date: 20 June 2024
Orbit: 480 x 491 km, 53.2° (Epoch: 24 July)

Event Time Altitude Azimuth Distance (km) Brightness Sun altitude
Rises 03:27:56 0° 316° (NW) 2,537 5.5 -11.8°
Reaches altitude 10° 03:30:07 10° 321° (NW) 1,656 4.6 -11.4°
Maximum altitude 03:33:48 58° 41° (NE) 562 2.5 -10.9°
Drops below altitude 10° 03:37:29 10° 121° (ESE) 1,652 4.8 -10.3°
Sets 03:39:40 0° 126° (SE) 2,531 5.7 -10.0°
